FW7648 Weather Reports


Display with metric or nautical units.
time (UTC)temp
F
wind
direction
speed
MPH
gust
MPH
rain 1hr
in
rain 24hr
in
rain mn
in
humidity
%
barometer
mb
20260510190105 67 16 2.0 6.0 0.00 0.00 0.00 68 1016.6
20260510185556 67 72 2.0 5.0 0.00 0.00 0.00 67 1016.8
20260510185057 68 360 2.0 6.0 0.00 0.00 0.00 66 1016.7
20260510184605 69 315 2.0 6.0 0.00 0.00 0.00 67 1016.8
20260510184056 69 336 2.0 6.0 0.00 0.00 0.00 71 1016.9
20260510183556 68 355 1.0 6.0 0.00 0.00 0.00 69 1016.9
20260510183108 67 66 1.0 9.0 0.00 0.00 0.00 72 1016.7
20260510182555 68 19 2.0 9.0 0.00 0.00 0.00 71 1016.7
20260510182057 67 329 3.0 7.0 0.00 0.00 0.00 72 1016.6
20260510181603 67 10 2.0 6.0 0.00 0.00 0.00 74 1016.6
20260510181057 67 319 1.0 9.0 0.00 0.00 0.00 73 1016.6
20260510180557 66 340 3.0 9.0 0.00 0.00 0.00 73 1016.4
20260510180105 66 0 0.0 6.0 0.00 0.00 0.00 73 1016.4
20260510175556 66 309 2.0 6.0 0.00 0.00 0.00 73 1016.5
20260510175057 67 360 1.0 7.0 0.00 0.00 0.00 73 1016.5
20260510174605 67 348 2.0 7.0 0.00 0.00 0.00 72 1016.5
20260510174057 67 0 2.0 4.0 0.00 0.00 0.00 72 1016.4
20260510173559 67 345 1.0 5.0 0.00 0.00 0.00 72 1016.2
20260510173102 68 333 2.0 6.0 0.00 0.00 0.00 71 1016.2
20260510172556 67 67 2.0 6.0 0.00 0.00 0.00 72 1016.1
20260510172056 68 327 2.0 7.0 0.00 0.00 0.00 72 1016.2
20260510171558 68 317 2.0 7.0 0.00 0.00 0.00 72 1016.2
20260510171056 69 346 2.0 9.0 0.00 0.00 0.00 73 1016.2
20260510170556 69 302 1.0 9.0 0.00 0.00 0.00 73 1016.2
20260510170104 69 61 3.0 9.0 0.00 0.00 0.00 71 1016.1
20260510165558 69 321 3.0 7.0 0.00 0.00 0.00 72 1016.1
20260510165056 68 315 1.0 7.0 0.00 0.00 0.00 73 1016.2
20260510164611 67 30 1.0 5.0 0.00 0.00 0.00 73 1016.2
20260510164055 66 22 1.0 4.0 0.00 0.00 0.00 73 1016.2
20260510163600 66 59 1.0 4.0 0.00 0.00 0.00 74 1016.3
20260510163059 65 0 0.0 4.0 0.00 0.00 0.00 74 1016.4
20260510162556 66 297 2.0 4.0 0.00 0.00 0.00 72 1016.3
20260510162055 66 54 1.0 4.0 0.00 0.00 0.00 72 1016.2
20260510161600 66 0 0.0 4.0 0.00 0.00 0.00 72 1016.3
20260510161056 66 67 0.0 4.0 0.00 0.00 0.00 72 1016.2
20260510160559 66 331 2.0 4.0 0.00 0.00 0.00 73 1016.1
20260510160100 66 360 1.0 4.0 0.00 0.00 0.00 73 1016.2
20260510155556 65 355 1.0 4.0 0.00 0.00 0.00 72 1016.2
20260510155056 65 338 1.0 5.0 0.00 0.00 0.00 74 1016.1
20260510154559 65 264 1.0 5.0 0.00 0.00 0.00 74 1016.0
20260510154057 65 284 1.0 4.0 0.00 0.00 0.00 74 1016.2
20260510153555 65 355 1.0 4.0 0.00 0.00 0.00 74 1016.0
20260510153056 65 355 1.0 4.0 0.00 0.00 0.00 75 1016.0
20260510152557 64 326 1.0 3.0 0.00 0.00 0.00 74 1015.8
20260510152056 64 0 1.0 3.0 0.00 0.00 0.00 75 1015.8
20260510151556 64 320 0.0 3.0 0.00 0.00 0.00 77 1015.8
20260510151057 64 319 1.0 3.0 0.00 0.00 0.00 76 1015.9
20260510150600 64 319 0.0 2.0 0.00 0.00 0.00 75 1015.9
20260510150123 64 0 0.0 2.0 0.00 0.00 0.00 74 1015.5
20260510145600 64 0 0.0 3.0 0.00 0.00 0.00 73 1015.3
20260510145056 64 319 1.0 3.0 0.00 0.00 0.00 74 1015.3
20260510144620 64 319 0.0 2.0 0.00 0.00 0.00 73 1015.2
20260510144058 64 0 0.0 2.0 0.00 0.00 0.00 72 1014.9
20260510143557 64 0 0.0 5.0 0.00 0.00 0.00 73 1015.0
20260510143058 65 0 1.0 5.0 0.00 0.00 0.00 73 1015.5
20260510142556 65 0 1.0 3.0 0.00 0.00 0.00 72 1015.4
20260510142056 65 0 1.0 6.0 0.00 0.00 0.00 73 1015.6
20260510141603 65 240 1.0 6.0 0.00 0.00 0.00 71 1015.6
20260510141056 65 276 2.0 7.0 0.00 0.00 0.00 72 1015.7
20260510140555 65 292 2.0 7.0 0.00 0.00 0.00 72 1015.5
20260510135556 65 274 1.0 8.0 0.00 0.00 0.00 72 1015.3
20260510135056 66 278 1.0 5.0 0.00 0.00 0.00 72 1015.3
20260510134607 65 284 1.0 5.0 0.00 0.00 0.00 74 1015.3
20260510134056 64 260 1.0 4.0 0.00 0.00 0.00 74 1015.1
20260510133557 64 0 1.0 3.0 0.00 0.00 0.00 74 1015.2
20260510133056 64 0 0.0 4.0 0.00 0.00 0.00 77 1015.2
20260510132556 63 0 1.0 4.0 0.00 0.00 0.00 77 1015.3
20260510132059 62 134 2.0 4.0 0.00 0.00 0.00 77 1015.3
20260510131601 62 124 0.0 4.0 0.00 0.00 0.00 77 1015.2
20260510131056 62 0 1.0 4.0 0.00 0.00 0.00 78 1015.0
20260510130556 62 0 0.0 2.0 0.00 0.00 0.00 78 1014.9
20260510130058 62 0 0.0 4.0 0.00 0.00 0.00 78 1015.0
20260510125558 62 176 0.0 4.0 0.00 0.00 0.00 78 1015.0
20260510125056 61 159 0.0 4.0 0.00 0.00 0.00 78 1015.1
20260510124556 61 0 0.0 2.0 0.00 0.00 0.00 78 1015.0
20260510124057 61 139 0.0 2.0 0.00 0.00 0.00 78 1014.9
20260510123557 61 0 0.0 2.0 0.00 0.00 0.00 79 1014.9
20260510123058 60 0 0.0 2.0 0.00 0.00 0.00 80 1014.8
20260510122556 60 0 0.0 2.0 0.00 0.00 0.00 80 1014.8
20260510122057 60 0 0.0 2.0 0.00 0.00 0.00 81 1014.7
20260510121606 59 0 0.0 2.0 0.00 0.00 0.00 81 1014.7
20260510121058 59 0 0.0 2.0 0.00 0.00 0.00 81 1014.7
20260510120557 59 140 0.0 2.0 0.00 0.00 0.00 82 1014.7
20260510120057 58 140 0.0 2.0 0.00 0.00 0.00 83 1014.6
20260510115556 57 140 0.0 2.0 0.00 0.00 0.00 84 1014.4
20260510115056 57 0 0.0 1.0 0.00 0.00 0.00 85 1014.5
20260510114614 57 0 0.0 2.0 0.00 0.00 0.00 85 1014.3
20260510114056 56 140 0.0 2.0 0.00 0.00 0.00 86 1014.2
20260510113556 56 140 0.0 2.0 0.00 0.00 0.00 87 1014.2
20260510113059 56 0 0.0 1.0 0.00 0.00 0.00 89 1014.2
20260510112556 55 0 0.0 0.0 0.00 0.00 0.00 90 1014.0
20260510112056 54 0 0.0 0.0 0.00 0.00 0.00 90 1014.0
20260510111601 53 0 0.0 0.0 0.00 0.00 0.00 90 1014.0
20260510111056 53 0 0.0 0.0 0.00 0.00 0.00 91 1013.8
20260510110556 53 0 0.0 1.0 0.00 0.00 0.00 91 1013.8
20260510110054 53 0 0.0 1.0 0.00 0.00 0.00 91 1013.7
20260510105556 52 130 0.0 1.0 0.00 0.00 0.00 91 1013.5
20260510105057 52 0 0.0 0.0 0.00 0.00 0.00 91 1013.6
20260510104615 52 0 0.0 1.0 0.00 0.00 0.00 91 1013.5
20260510104056 52 0 0.0 1.0 0.00 0.00 0.00 91 1013.4
20260510103556 52 0 0.0 1.0 0.00 0.00 0.00 91 1013.4
20260510103054 51 0 0.0 1.0 0.00 0.00 0.00 91 1013.4
20260510102556 51 130 0.0 1.0 0.00 0.00 0.00 91 1013.3
20260510102055 51 0 0.0 0.0 0.00 0.00 0.00 91 1013.3
20260510101602 51 0 0.0 0.0 0.00 0.00 0.00 91 1013.1
20260510101057 51 0 0.0 0.0 0.00 0.00 0.00 91 1013.1
20260510100556 51 0 0.0 0.0 0.00 0.00 0.00 91 1013.1
20260510095556 51 0 0.0 0.0 0.00 0.00 0.00 91 1013.1
20260510095055 51 0 0.0 0.0 0.00 0.00 0.00 91 1013.0
20260510094604 51 0 0.0 0.0 0.00 0.00 0.00 91 1013.0
20260510094056 51 0 0.0 1.0 0.00 0.00 0.00 91 1012.7
20260510093556 51 0 0.0 1.0 0.00 0.00 0.00 90 1012.8
20260510093058 51 0 0.0 1.0 0.00 0.00 0.00 90 1012.7
20260510092559 51 0 0.0 1.0 0.00 0.00 0.00 90 1012.7
20260510092056 52 0 0.0 2.0 0.00 0.00 0.00 90 1012.6
20260510091558 52 0 0.0 2.0 0.00 0.00 0.00 90 1012.5
20260510091056 52 0 0.0 2.0 0.00 0.00 0.00 90 1012.5
20260510090556 52 0 0.0 2.0 0.00 0.00 0.00 90 1012.4
20260510090056 52 0 0.0 2.0 0.00 0.00 0.00 90 1012.4
20260510085558 52 0 0.0 0.0 0.00 0.00 0.00 89 1012.4
20260510085056 52 0 0.0 0.0 0.00 0.00 0.00 89 1012.3
20260510084556 52 0 0.0 0.0 0.00 0.00 0.00 90 1012.3
20260510084056 52 0 0.0 0.0 0.00 0.00 0.00 89 1012.2
20260510083557 52 0 0.0 0.0 0.00 0.00 0.00 89 1012.1
20260510083055 52 0 0.0 0.0 0.00 0.00 0.00 89 1012.1
20260510082555 52 0 0.0 0.0 0.00 0.00 0.00 89 1012.1
20260510082056 52 0 0.0 0.0 0.00 0.00 0.00 89 1012.2
20260510081556 53 0 0.0 0.0 0.00 0.00 0.00 89 1012.0
20260510081056 53 0 0.0 0.0 0.00 0.00 0.00 88 1011.9
20260510080556 53 0 0.0 0.0 0.00 0.00 0.00 88 1012.0
20260510080100 53 0 0.0 1.0 0.00 0.00 0.00 88 1011.9
20260510075557 53 0 0.0 1.0 0.00 0.00 0.00 88 1011.9
20260510075056 54 0 0.0 1.0 0.00 0.00 0.00 87 1011.9
20260510074605 54 0 0.0 0.0 0.00 0.00 0.00 87 1011.9
20260510074055 54 0 0.0 1.0 0.00 0.00 0.00 86 1011.8
20260510073556 55 0 0.0 1.0 0.00 0.00 0.00 85 1011.8
20260510073055 55 0 0.0 1.0 0.00 0.00 0.00 84 1011.7
20260510072556 55 0 0.0 1.0 0.00 0.00 0.00 84 1011.7
20260510072056 56 0 0.0 1.0 0.00 0.00 0.00 84 1011.9
20260510071557 56 0 0.0 1.0 0.00 0.00 0.00 84 1011.9
20260510071056 56 0 0.0 1.0 0.00 0.00 0.00 84 1011.7
20260510070556 56 0 0.0 1.0 0.00 0.00 0.00 83 1011.8
20260510070109 57 0 0.0 1.0 0.00 0.00 0.00 82 1011.8
20260510065556 57 0 0.0 1.0 0.00 0.00 0.00 82 1011.7
20260510065056 57 0 0.0 1.0 0.00 0.00 0.00 82 1011.7
20260510064600 58 0 0.0 1.0 0.00 0.00 0.00 80 1011.8
20260510064056 58 0 0.0 1.0 0.00 0.00 0.00 80 1011.7
20260510063556 59 0 0.0 1.0 0.00 0.00 0.00 80 1011.7
20260510063100 59 0 0.0 1.0 0.00 0.00 0.00 79 1011.8
20260510062559 59 130 0.0 2.0 0.00 0.00 0.00 79 1011.8
20260510062056 59 0 0.0 2.0 0.00 0.00 0.00 79 1011.8
20260510061559 59 158 0.0 2.0 0.00 0.00 0.00 79 1011.7
20260510061057 59 0 0.0 3.0 0.00 0.00 0.00 79 1011.8
20260510060557 59 0 0.0 3.0 0.00 0.00 0.00 79 1011.8
20260510055557 59 0 0.0 3.0 0.00 0.00 0.00 78 1011.9
20260510055057 60 139 0.0 3.0 0.00 0.00 0.00 78 1011.9
20260510054605 60 139 0.0 3.0 0.00 0.00 0.00 78 1011.8
20260510054057 60 139 0.0 3.0 0.00 0.00 0.00 78 1011.9
20260510053559 60 139 0.0 2.0 0.00 0.00 0.00 78 1011.9
20260510053059 60 0 0.0 2.0 0.00 0.00 0.00 78 1012.0
20260510052557 60 139 0.0 3.0 0.00 0.00 0.00 78 1011.9
20260510052056 60 139 0.0 3.0 0.00 0.00 0.00 78 1012.0
20260510051604 60 139 1.0 2.0 0.00 0.00 0.00 78 1012.0
20260510051100 60 0 0.0 2.0 0.00 0.00 0.00 78 1012.1
20260510050557 60 139 0.0 2.0 0.00 0.00 0.00 78 1012.1
20260510050100 60 134 0.0 2.0 0.00 0.00 0.00 77 1012.1
20260510045559 60 134 0.0 3.0 0.00 0.00 0.00 77 1012.1
20260510045056 60 134 1.0 3.0 0.00 0.00 0.00 77 1012.1
20260510044613 60 0 0.0 2.0 0.00 0.00 0.00 77 1012.2
20260510044100 60 148 0.0 2.0 0.00 0.00 0.00 77 1012.1
20260510043557 60 0 0.0 2.0 0.00 0.00 0.00 77 1012.2
20260510043111 61 150 0.0 2.0 0.00 0.00 0.00 77 1012.1
20260510042558 61 0 0.0 3.0 0.00 0.00 0.00 77 1012.2
20260510042059 61 0 0.0 3.0 0.00 0.00 0.00 77 1012.1
20260510041612 61 0 0.0 2.0 0.00 0.00 0.00 76 1012.1
20260510041057 61 150 0.0 2.0 0.00 0.00 0.00 76 1012.1
20260510040558 61 165 0.0 2.0 0.00 0.00 0.00 76 1012.0
20260510035557 61 156 0.0 2.0 0.00 0.00 0.00 76 1012.1
20260510035059 61 0 0.0 2.0 0.00 0.00 0.00 76 1012.2
20260510034600 61 113 0.0 2.0 0.00 0.00 0.00 76 1012.1
20260510034058 61 0 0.0 2.0 0.00 0.00 0.00 76 1012.1
20260510033601 61 0 0.0 2.0 0.00 0.00 0.00 75 1012.2
20260510033128 61 0 0.0 2.0 0.00 0.00 0.00 75 1012.2
20260510032600 62 0 0.0 3.0 0.00 0.00 0.00 75 1012.1
20260510032057 62 140 0.0 3.0 0.00 0.00 0.00 75 1012.2
20260510031630 62 0 0.0 3.0 0.00 0.00 0.00 75 1012.0
20260510031058 62 0 1.0 3.0 0.00 0.00 0.00 75 1012.0
20260510030557 61 0 0.0 2.0 0.00 0.00 0.00 75 1012.0
20260510025557 62 148 0.0 2.0 0.00 0.00 0.00 75 1011.9
20260510025058 62 0 0.0 1.0 0.00 0.00 0.00 74 1011.9
20260510024557 62 0 0.0 1.0 0.00 0.00 0.00 74 1011.8
20260510024101 62 0 0.0 1.0 0.00 0.00 0.00 73 1011.7
20260510023557 63 0 0.0 3.0 0.00 0.00 0.00 73 1011.6
20260510023055 63 0 0.0 3.0 0.00 0.00 0.00 73 1011.7
20260510022557 63 0 0.0 3.0 0.00 0.00 0.00 72 1011.5
20260510022058 63 0 0.0 3.0 0.00 0.00 0.00 72 1011.5
20260510021559 63 0 0.0 4.0 0.00 0.00 0.00 72 1011.4
20260510021056 63 0 0.0 4.0 0.00 0.00 0.00 72 1011.4
20260510020557 63 167 0.0 3.0 0.00 0.00 0.00 72 1011.4
20260510020058 63 0 0.0 3.0 0.00 0.00 0.00 71 1011.4
20260510015600 63 0 0.0 3.0 0.00 0.00 0.00 71 1011.3
20260510015056 64 167 0.0 1.0 0.00 0.00 0.00 71 1011.2
20260510014608 64 0 0.0 3.0 0.00 0.00 0.00 70 1011.2
20260510014058 64 0 0.0 4.0 0.00 0.00 0.00 70 1011.2
20260510013558 64 0 1.0 4.0 0.00 0.00 0.00 70 1011.0
20260510013057 64 0 0.0 3.0 0.00 0.00 0.00 70 1011.0
20260510012557 64 0 0.0 6.0 0.00 0.00 0.00 69 1010.9
20260510012059 64 0 0.0 6.0 0.00 0.00 0.00 69 1010.8
20260510011601 64 200 0.0 3.0 0.00 0.00 0.00 69 1010.6
20260510011101 65 0 0.0 3.0 0.00 0.00 0.00 69 1010.5
20260510010557 65 188 0.0 3.0 0.00 0.00 0.00 68 1010.3
20260510010103 65 0 0.0 3.0 0.00 0.00 0.00 68 1010.4
20260510005557 66 0 0.0 4.0 0.00 0.00 0.00 67 1010.5
20260510005056 66 164 0.0 4.0 0.00 0.00 0.00 67 1010.2
20260510004600 66 220 0.0 5.0 0.00 0.00 0.00 66 1010.1
20260510004056 66 157 1.0 6.0 0.00 0.00 0.00 66 1010.1
20260510003558 66 0 0.0 6.0 0.00 0.00 0.00 66 1010.1
20260510003101 67 178 1.0 4.0 0.00 0.00 0.00 66 1009.9
20260510002557 67 120 1.0 4.0 0.00 0.00 0.00 65 1009.9
20260510002057 67 175 0.0 6.0 0.00 0.00 0.00 65 1009.7
20260510001557 67 222 1.0 6.0 0.00 0.00 0.00 64 1009.8
20260510001137 68 195 1.0 6.0 0.00 0.00 0.00 64 1009.8
20260510000601 68 217 0.0 7.0 0.00 0.00 0.00 63 1009.8
20260510000100 68 281 1.0 7.0 0.00 0.00 0.00 63 1009.7
20260509235559 68 145 1.0 7.0 0.00 0.00 0.00 62 1009.6
20260509235057 69 146 1.0 9.0 0.00 0.00 0.00 62 1009.5
20260509234608 69 161 2.0 9.0 0.00 0.00 0.00 61 1009.6
20260509234057 70 141 3.0 9.0 0.00 0.00 0.00 60 1009.5
20260509233559 70 214 2.0 7.0 0.00 0.00 0.00 60 1009.5
20260509233057 70 209 1.0 7.0 0.00 0.00 0.00 60 1009.4
20260509232557 70 267 2.0 6.0 0.00 0.00 0.00 60 1009.4
20260509232057 71 275 1.0 4.0 0.00 0.00 0.00 59 1009.3
20260509231559 71 184 0.0 5.0 0.00 0.00 0.00 59 1009.3
20260509231057 71 218 1.0 5.0 0.00 0.00 0.00 59 1009.3
20260509230556 71 217 1.0 4.0 0.00 0.00 0.00 60 1009.2
20260509230057 71 264 0.0 7.0 0.00 0.00 0.00 59 1009.2
20260509225557 71 202 2.0 7.0 0.00 0.00 0.00 59 1009.3
20260509225057 71 242 1.0 6.0 0.00 0.00 0.00 59 1009.4
20260509224557 71 281 2.0 6.0 0.00 0.00 0.00 59 1009.4
20260509224058 71 294 2.0 7.0 0.00 0.00 0.00 58 1009.4
20260509223557 71 253 2.0 7.0 0.00 0.00 0.00 60 1009.4
20260509223059 71 291 1.0 6.0 0.00 0.00 0.00 58 1009.5
20260509222559 71 0 1.0 6.0 0.00 0.00 0.00 60 1009.6
20260509222057 71 265 1.0 4.0 0.00 0.00 0.00 60 1009.6
20260509221557 70 293 1.0 4.0 0.00 0.00 0.00 60 1009.7
20260509221057 70 0 1.0 5.0 0.00 0.00 0.00 60 1009.7
20260509220556 71 273 1.0 8.0 0.00 0.00 0.00 58 1009.6
20260509215557 72 0 2.0 7.0 0.00 0.00 0.00 57 1009.7
20260509215057 72 267 3.0 7.0 0.00 0.00 0.00 57 1009.7
20260509214555 72 250 2.0 10.0 0.00 0.00 0.00 58 1009.9
20260509214057 72 271 1.0 10.0 0.00 0.00 0.00 57 1009.9
20260509213557 72 247 4.0 10.0 0.00 0.00 0.00 56 1009.8
20260509213058 72 344 2.0 8.0 0.00 0.00 0.00 58 1009.8
20260509212557 72 275 2.0 8.0 0.00 0.00 0.00 58 1009.8
20260509212057 72 262 3.0 8.0 0.00 0.00 0.00 57 1009.7
20260509211604 72 215 2.0 12.0 0.00 0.00 0.00 59 1009.8
20260509211057 72 261 1.0 12.0 0.00 0.00 0.00 61 1009.8
20260509210557 71 216 4.0 12.0 0.00 0.00 0.00 58 1009.7
20260509210104 72 286 2.0 7.0 0.00 0.00 0.00 56 1009.7
20260509205558 72 185 1.0 7.0 0.00 0.00 0.00 60 1009.8
20260509205101 72 181 2.0 8.0 0.00 0.00 0.00 60 1009.7
20260509204604 71 266 3.0 8.0 0.00 0.00 0.00 60 1009.8
20260509204058 72 0 2.0 7.0 0.00 0.00 0.00 60 1009.8
20260509203556 72 190 1.0 7.0 0.00 0.00 0.00 64 1009.8
20260509203101 71 202 2.0 7.0 0.00 0.00 0.00 60 1009.8
20260509202556 72 212 3.0 7.0 0.00 0.00 0.00 61 1009.8
20260509202057 72 138 2.0 5.0 0.00 0.00 0.00 61 1009.8
20260509201600 71 0 1.0 5.0 0.00 0.00 0.00 62 1009.9
20260509201057 71 245 1.0 5.0 0.00 0.00 0.00 63 1010.0
20260509200555 69 249 1.0 4.0 0.00 0.00 0.00 63 1010.0
20260509200057 69 284 2.0 5.0 0.00 0.00 0.00 61 1010.0
20260509195558 68 299 1.0 6.0 0.00 0.00 0.00 63 1010.3
20260509195057 68 268 1.0 8.0 0.00 0.00 0.00 63 1010.2
20260509194558 69 193 2.0 8.0 0.00 0.00 0.00 61 1010.3
20260509194101 69 0 0.0 7.0 0.00 0.00 0.00 62 1010.1
20260509193557 68 285 0.0 8.0 0.00 0.00 0.00 63 1010.3
20260509193058 68 0 1.0 9.0 0.00 0.00 0.00 62 1010.2
20260509192557 69 213 3.0 9.0 0.00 0.00 0.00 61 1010.2
20260509192057 69 238 3.0 9.0 0.00 0.00 0.00 62 1010.3
20260509191611 69 266 4.0 9.0 0.00 0.00 0.00 63 1010.4
20260509191100 69 305 1.0 7.0 0.00 0.00 0.00 63 1010.2
20260509190556 69 288 1.0 7.0 0.00 0.00 0.00 64 1010.1